Simultaneous Nadir Overpasses (SNOs) Predictions

Prediction of SNOs between GOES-17 and TERRA Satellite Orbit:

Table of predicted SNOs for the next 14.0 days since TLE Epoch: 9/9/2023
Index Date Time (GOES-17) GOES-17 Lat,Lon TERRA Lat,Lon Distance(km) Time Diff (sec)
1 09/10/2023 04:56:17 -0.00,-104.69 0.18,-103.95 84.66 80
2 09/10/2023 17:16:26 0.00,-104.71 0.90,-108.84 470.17 80
3 09/12/2023 17:00:01 -0.00,-104.71 0.01,-104.88 19.36 80
4 09/14/2023 16:46:15 -0.00,-104.71 -0.83,-100.91 432.28 80
5 09/15/2023 05:06:33 -0.00,-104.69 -0.27,-105.84 130.77 80
6 09/17/2023 04:47:27 -0.00,-104.70 0.59,-101.87 320.78 80
7 09/17/2023 17:07:36 0.00,-104.71 0.46,-106.77 234.02 80
8 09/19/2023 16:53:50 -0.00,-104.72 -0.43,-102.81 217.54 80
9 09/20/2023 05:14:08 0.00,-104.70 -0.66,-107.73 345.10 80
10 09/22/2023 04:55:01 -0.00,-104.70 0.17,-103.76 105.79 80
11 09/22/2023 17:15:09 0.00,-104.71 0.86,-108.66 449.75 80
